Buffalo, SD

5:33 PM MDT on June 26, 2017 (GMT -0600)
Buffalo

Weather History for K2WX - August, 2013

Change the Weather History Date:

Tuesday, August 27, 2013

  Actual Average Record
Temperature  
Mean Temperature 78 °F 68 °F  
Max Temperature 91 °F 82 °F 102 °F (2003)
Min Temperature 64 °F 53 °F 41 °F (2008)
Degree Days  
Heating Degree Days 0 2  
Month to date heating degree days 2 24  
Since 1 June heating degree days 101 158  
Since 1 July heating degree days 12 44  
Cooling Degree Days 13 5  
Month to date cooling degree days 163 182  
Year to date cooling degree days 442 457  
Since 1 June cooling degree days 432 451  
Growing Degree Days 28 (Base 50)    
Moisture  
Dew Point 67 °F    
Average Humidity 71    
Maximum Humidity 100    
Minimum Humidity 41    
Precipitation  
Precipitation 0.02 in 0.05 in 0.19 in (2003)
Month to date precipitation 2.64 1.21  
Year to date precipitation 9.48 11.94  
Sea Level Pressure  
Sea Level Pressure 29.84 in    
Wind  
Wind Speed 8 mph (NE)    
Max Wind Speed 26 mph    
Max Gust Speed 31 mph    
T = Trace of Precipitation, MM = Missing Value Source: NWS Daily Summary

Daily Weather History Graph

Daily Weather History Graph

Search for Another Location

Airport or City:

Trip Planner

Search our weather history database for the weather conditions in past years. The results will help you decide how hot, cold, wet, or windy it might be!

Date:

Astronomy

Aug. 27, 2013 Rise Set
Actual Time 6:09 AM MDT 7:40 PM MDT
Civil Twilight 5:38 AM MDT 8:11 PM MDT
Nautical Twilight 5:00 AM MDT 8:48 PM MDT
Astronomical Twilight 4:20 AM MDT 9:29 PM MDT
Moon 11:12 PM MDT (8/27) 1:32 PM MDT (8/27)
Length of Visible Light 14h 32m
Length of Day
13h 30m
Waning Gibbous, 56% of the Moon is Illuminated
Aug 27
Waning Gibbous
Aug 28
Last Quarter
Sep 5
New
Sep 12
First Quarter
Sep 19
Full

Hourly Weather History & Observations

Time (MDT) Temp. Heat Index Dew Point Humidity Pressure Visibility Wind Dir Wind Speed Gust Speed Precip Events Conditions
12:56 AM 70.0 °F - 68.0 °F 93% 29.82 in - Calm Calm - N/A   Unknown
1:56 AM 71.1 °F - 69.1 °F 93% 29.80 in - SSW 3.5 mph - N/A   Unknown
2:56 AM 70.0 °F - 69.1 °F 97% 29.81 in - Calm Calm - N/A   Unknown
3:56 AM 70.0 °F - 68.0 °F 93% 29.81 in - Calm Calm - N/A   Unknown
4:56 AM 70.0 °F - 68.0 °F 93% 29.81 in - Calm Calm - N/A   Unknown
5:56 AM 69.1 °F - 68.0 °F 96% 29.83 in - Calm Calm - N/A   Unknown
6:56 AM 69.1 °F - 68.0 °F 96% 29.84 in - ESE 4.6 mph - N/A   Unknown
7:56 AM 71.1 °F - 69.1 °F 93% 29.86 in - NNE 4.6 mph - N/A   Unknown
8:56 AM 75.9 °F - 69.1 °F 79% 29.86 in - North 4.6 mph - N/A   Unknown
9:56 AM 81.0 °F 84.1 °F 69.1 °F 67% 29.86 in - NE 4.6 mph - N/A   Unknown
10:56 AM 88.0 °F 91.4 °F 68.0 °F 51% 29.86 in - NE 11.5 mph - N/A   Unknown
11:56 AM 90.0 °F 91.7 °F 64.9 °F 43% 29.85 in - Variable 6.9 mph - N/A   Unknown
12:56 PM 90.0 °F 90.6 °F 63.0 °F 40% 29.83 in - NE 18.4 mph - N/A   Unknown
1:56 PM 90.0 °F 90.6 °F 63.0 °F 40% 29.82 in - NNE 13.8 mph 24.2 mph N/A   Unknown
2:56 PM 78.1 °F - 66.0 °F 66% 29.84 in - NNW 13.8 mph - 0.01 in   Unknown
3:56 PM 89.1 °F 91.3 °F 66.0 °F 46% 29.81 in - NNE 11.5 mph - 0.01 in   Unknown
4:56 PM 84.9 °F 87.1 °F 66.0 °F 53% 29.80 in - ENE 17.3 mph 23.0 mph N/A   Unknown
6:56 PM 78.1 °F - 66.0 °F 66% 29.86 in - ENE 18.4 mph - N/A   Unknown
7:56 PM 73.0 °F - 64.9 °F 76% 29.88 in - ENE 10.4 mph - N/A   Unknown
8:56 PM 71.1 °F - 66.0 °F 84% 29.89 in - East 9.2 mph - N/A   Unknown
9:56 PM 70.0 °F - 64.9 °F 84% 29.89 in - NE 11.5 mph - N/A   Unknown
10:56 PM 66.9 °F - 64.0 °F 90% 29.88 in - NE 10.4 mph - N/A   Unknown
11:56 PM 66.0 °F - 64.0 °F 93% 29.88 in - ENE 8.1 mph - N/A   Unknown